Regional Weather Roundup
Issued by NWS

Home | Current Version | Previous Version | Text Only | Print | Product List | Glossary On
Versions: 1 2 3 4 5 6 7 8 9 10 11 12 13 14 15 16 17 18 19 20 21 22 23 24 25 26 27 28 29 30 31 32 33 34 35 36 37 38 39 40 41 42 43 44 45 46 47 48 49 50
000
ASUS45 KTFX 232210
RWRMT
MONTANA REGIONAL WEATHER ROUNDUP
NATIONAL WEATHER SERVICE GREAT FALLS MT
300 PM MST THU NOV 23 2017

NOTE: "FAIR" INDICATES FEW OR NO CLOUDS BELOW 12000 FEET WITH NO
SIGNIFICANT WEATHER AND/OR OBSTRUCTIONS TO VISIBILITY.

MTZ001>007-043-232300-
WEST OF THE DIVIDE

CITY           SKY/WX    TMP DP  RH WIND       PRES   REMARKS
KALISPELL      LGT RAIN  56  47  71 S13       29.61F
MISSOULA       CLOUDY    52  49  89 N6        29.76S
BUTTE          FAIR      58  31  35 W15G30    29.84F
MULLAN PASS    RAIN      41  39  93 W14G30    29.73  FOG
ANACONDA         N/A     57  34  41 S23G32    29.80F
DEER LODGE       N/A     63  34  34 S16G23    29.75F
EUREKA           N/A     54  46  76 MISG      29.56F
HAMILTON         N/A     64  37  36 S14G20    29.74F
LIBBY            N/A     54  48  82 SE12G21   29.57S
PLAINS           N/A     55  47  74 SE3       29.72F
RONAN            N/A     54  47  77 SE13      29.78S
$$

MTZ008-052>055-232300-
SOUTHWEST MONTANA

CITY           SKY/WX    TMP DP  RH WIND       PRES   REMARKS
BOZEMAN        FAIR      62  36  37 SW21G26   29.79F
DILLON         FAIR      62  30  29 SW26G39   29.87F
W YELLOWSTONE  FAIR      45  39  81 SW18G28   30.03F
ENNIS          SUNNY     55  37  50 S28G39    29.95F
TWIN BRIDGES     N/A     65  30  27 S17       29.87F
$$

MTZ009-010-012-014-046-048-049-054-232300-
EAST SLOPES AND CENTRAL MONTANA

CITY           SKY/WX    TMP DP  RH WIND       PRES   REMARKS
CUT BANK       FAIR      54  41  61 SW26G32   29.52F
GREAT FALLS    FAIR      60  40  47 W28G43    29.60F
MALMSTROM AFB  FAIR      61  41  47 W23G40    29.61F
HELENA         FAIR      67  34  29 SW17G24   29.68F
BOWMANS CRNR   LGT RAIN  51  43  76 SW22G28   29.65F
CHOTEAU          N/A     57  39  51 SW23G35   29.61F
FAIRFIELD      FAIR      56  39  51 SW28G37   29.61F
POWER          FAIR      57  37  47 SW37G48   29.60F
RAYNESFORD     FAIR      65  35  32 W29G48    29.62F
ULM            FAIR      63  39  42 W26       29.62F
$$

MTZ011-013-016-021-045-047-050-051-232300-
NORTH CENTRAL MONTANA

CITY           SKY/WX    TMP DP  RH WIND       PRES   REMARKS
HAVRE          FAIR      67  40  37 W26G40    29.49F
LEWISTOWN      FAIR      65  35  33 W43G56    29.64F
N BAR RANCH    FAIR      66  30  26 W23G37    29.67F
CHINOOK          N/A     70  37  30 W26G40    29.47F
DENTON         FAIR      67  36  31 W28       29.57F
GEYSER         FAIR      64  35  33 W29G37    29.62F
GRASS RANGE    FAIR      67  33  28 W36G53    29.59F
STANFORD       FAIR      64  33  31 W29G44    29.65S
WINIFRED       FAIR      66  35  31 W29G41    29.58F
$$

MTZ017>020-022>027-061-062-232300-
NORTHEAST MONTANA

CITY           SKY/WX    TMP DP  RH WIND       PRES   REMARKS
GLASGOW        FAIR      71  36  27 W26G35    29.49F
JORDAN           N/A     73  34  23 W23G31    29.55F
SIDNEY         FAIR      70  37  29 SW20G25   29.49F
WOLF POINT     FAIR      72  38  29 SW21G32   29.48F
MALTA          MOSUNNY   72  37  28 W16G29    29.49S
PLENTYWOOD       N/A     66  39  37 W22       29.44S
POPLAR           N/A     70  37  30 W18G32    29.48F
SCOBEY           N/A     68  38  33 SW26      29.46
$$

MTZ028>42-056>058-232300-
SOUTHCENTRAL AND SOUTHEAST MONTANA

CITY           SKY/WX    TMP DP  RH WIND       PRES   REMARKS
BAKER          FAIR      65  39  38 SW15      29.65F
BILLINGS       FAIR      71  35  26 SW23G38   29.70F
LIVINGSTON     FAIR      63  37  38 SW40G61   29.73F
MILES CITY     FAIR      72  39  30 W21G29    29.62F
BIG TIMBER     SUNNY     66  32  28 W29G38    29.75F
EKALAKA          N/A     65  35  32 SW6       29.71F
FORSYTH          N/A     72  36  26 SW12G21   29.64F
HARLOWTON      FAIR      65  34  31 W22G35    29.71F
LAUREL           N/A     72  34  25 SW35G41   29.71F
ROUNDUP          N/A     70  33  25 SW16      29.61F
$$

REGIONAL REPORTS...DAKOTAS

CITY           SKY/WX    TMP DP  RH WIND       PRES   REMARKS
WILLISTON      FAIR      66  38  35 SW10      29.47F
MINOT          FAIR      62  41  46 SW13      29.43F
DICKINSON      FAIR      67  36  31 W20       29.56F
BEACH          FAIR      64  36  34 SW16G25   29.62F
CROSBY         FAIR      59  39  47 SW20      29.41F
TIOGA          FAIR      59  39  47 SW15      29.47F
WATFORD CITY   FAIR      64  37  36 SW18G25   29.49F
BISMARCK       FAIR      72  39  30 W15       29.56F
GRAND FORKS    FAIR      39  32  76 S13       29.54F WCI  31
FARGO          FAIR      47  30  51 S13       29.60F
RAPID CITY     FAIR      72  35  25 S8        29.74F
$$

REGIONAL REPORTS...WYOMING/IDAHO/WASHINGTON

CITY           SKY/WX    TMP DP  RH WIND       PRES   REMARKS
GILLETTE       FAIR      62  33  33 SW15      29.81F
SHERIDAN       FAIR      65  36  34 W14       29.78S
BUFFALO WY     FAIR      61  30  31 E6        29.83F
CODY           FAIR      65  34  31 W9G21     29.88F
YELLOWSTONE LA   N/A     44  35  70 W9G22     30.10F
IDAHO FALLS    FAIR      58  44  60 SW21G28   30.04F
SALMON         FAIR      43  41  93 CALM      29.89F
BOISE          FAIR      64  46  52 SE10      29.97F
SPOKANE        CLOUDY    57  49  74 SW28G39   29.67F
$$

REGIONAL REPORTS...ALBERTA

CITY           SKY/WX    TMP DP  RH WIND       PRES   REMARKS
EDMONTON       CLEAR     39  32  75 SW9       29.28F
CALGARY        CLOUDY    36  32  87 NE12G17   29.43R WCI  27
LETHBRIDGE     LGT RAIN  55  41  58 SW30G45   29.43S
MEDICINE HAT   PTSUNNY   61  46  59 SW23G30   29.35F
$$

REGIONAL REPORTS...SASKATCHEWAN

CITY           SKY/WX    TMP DP  RH WIND       PRES   REMARKS
SWIFT CURRENT  CLEAR     48  41  76 NW16G22   29.35R
REGINA         MOCLDY    45  37  76 W10       29.30F
SASKATOON      MOCLDY    30  27  86 W12       29.29R WCI  21
$$



USA.gov is the U.S. government's official web portal to all federal, state and local government web resources and services.